TIME,DELAY(SENSOR),PRES,OXYGEN,RAWTEMP,T(OPTODE),TCPHASE,FLUOR,BETA(BETA700),BETA(BETA412),BETA(BETA440),CDOM,C(CSC),ED(ED412.20),ED(ED444.00),ED(ED489.60),ED(ED554.30),LU(LU412.10),LU(LU443.90),LU(LU489.70),LU(LU554.70),COMP,TILTX,TILTY,CHECK
1338692741,5809,894.0000000000000000,34.0301513671875000,567.4735717773438000,4.2540440559387210,56.5105514526367200,56,99,101,79,84,15519,0,0,0,0,2147126070,2147773787,2147574034,2147576786,849,2,13,46720
1338696337,5810,972.8400268554688000,40.4272994995117200,574.0930175781250000,4.0482997894287110,55.5957794189453100,56,98,101,78,84,15515,0,0,0,0,2147124498,2147772306,2147571693,2147573869,3460,2,13,10367
1338699937,5810,981.4199829101562000,40.6507797241210940,574.6594238281250000,4.0306739807128910,55.5700683593750000,56,98,100,78,84,15515,0,0,0,0,2147123904,2147768338,2147572534,2147574217,249,2,13,36522
1338703537,5814,990.9299926757812000,41.0867309570312500,575.1906127929688000,4.0141468048095700,55.5085487365722660,55,98,103,78,84,15514,0,0,0,0,2147123081,2147773220,2147574619,2147575186,75,2,13,51104
1338707137,5810,989.8499755859375000,41.1996803283691400,576.1212158203125000,3.9851799011230470,55.5032882690429700,55,103,102,78,83,15514,0,0,0,0,2147125650,2147770139,2147571181,2147571693,319,2,13,35491
1338710737,5810,996.3900146484375000,41.2665481567382800,576.0690917968750000,3.9868049621582030,55.4919509887695300,54,97,102,79,84,15510,0,0,0,0,2147122377,2147771492,2147569417,2147573942,219,2,13,14849
1338714337,5809,1002.6400146484375000,40.4125785827636700,574.9296875000000000,4.0222640037536620,55.6097717285156250,55,100,100,78,84,15513,0,0,0,0,2147124516,2147774153,2147574171,2147574299,3469,2,13,2300
1338717937,5809,1003.0200195312500000,40.3657112121582000,575.4172973632812000,4.0070900917053220,55.6165504455566400,54,98,102,78,83,15510,0,0,0,0,2147125120,2147775067,2147573613,2147572361,115,2,13,41978
1338721537,5810,1003.1799926757812000,39.9017486572265600,574.6843261718750000,4.0299000740051270,55.6813316345214840,56,98,102,77,84,15511,0,0,0,0,2147125037,2147775360,2147573056,2147571355,63,2,13,15663
1338725137,5810,1004.1199951171875000,39.9057312011718750,575.3682250976562000,4.0086188316345215,55.6835594177246100,56,98,101,78,83,15513,0,0,0,0,2147129051,2147777920,2147574710,2147569700,161,2,13,35120
1338728737,5809,993.9000244140625000,40.5128288269043000,576.4014282226562000,3.9764599800109863,55.6055183410644500,54,99,100,78,84,15511,0,0,0,0,2147126290,2147772763,2147573193,2147571483,3539,2,13,23214
1338732337,5810,1000.0499877929688000,41.6290893554687500,576.9547729492188000,3.9592299461364746,55.4508209228515600,54,98,103,78,83,15512,0,0,0,0,2147125732,2147777627,2147576009,2147572114,268,2,13,10727
1338735937,5809,1002.1300048828125000,40.7053909301757800,576.7482299804688000,3.9656620025634766,55.5838584899902340,55,98,104,79,85,15510,0,0,0,0,2147123867,2147777746,2147571638,2147573970,225,2,13,38805
1338739537,5809,1005.9299926757812000,41.1699714660644500,576.9929809570312000,3.9580399990081787,55.5186691284179700,55,98,102,78,84,15511,0,0,0,0,2147125275,2147777746,2147572662,2147574116,13,2,13,55723
1338743137,5809,1007.9600219726562000,41.4110183715820300,576.3477783203125000,3.9781279563903810,55.4727783203125000,55,99,101,79,83,15510,0,0,0,0,2147123611,2147777142,2147571730,2147575314,143,2,13,17719
1338746737,5813,1003.4500122070312000,40.4943008422851560,577.0435791015625000,3.9564669132232666,55.6207389831543000,56,99,102,79,84,15511,0,0,0,0,2147124571,2147774509,2147575972,2147571840,73,2,13,33845
1338750337,5810,1002.3699951171875000,40.8024902343750000,576.9738769531250000,3.9586329460144043,55.5693283081054700,55,98,100,78,85,15506,0,0,0,0,2147124672,2147772699,2147576960,2147574409,456,2,13,15717
1338753937,5809,1006.8800048828125000,41.6137390136718750,577.2432250976562000,3.9502511024475098,55.4529991149902340,56,99,102,78,84,15510,0,0,0,0,2147127716,2147772690,2147573147,2147571382,168,2,13,8829
1338757537,5809,1004.9500122070312000,40.9186210632324200,577.8026123046875000,3.9328329563140870,55.5603904724121100,55,98,104,79,84,15512,0,0,0,0,2147128201,2147779181,2147571995,2147574180,122,2,13,25194
1338761137,5810,1007.5499877929688000,41.3654785156250000,576.7783203125000000,3.9647269248962402,55.4858589172363300,55,97,102,79,84,15507,0,0,0,0,2147124571,2147770624,2147571867,2147578093,220,2,13,44224
1338764737,5809,1006.7399902343750000,41.0991706848144500,577.3596191406250000,3.9466269016265870,55.5294418334960940,55,99,103,78,84,15505,0,0,0,0,2147121325,2147774729,2147574948,2147574253,305,2,13,16059
1338768337,5812,1004.0300292968750000,41.0560798645019500,577.7595214843750000,3.9341740608215330,55.5441589355468750,55,98,102,78,84,15507,0,0,0,0,2147124580,2147776155,2147576832,2147573961,3377,2,13,36225
1338771937,5810,1007.7600097656250000,42.1128807067871100,577.7796020507812000,3.9335479736328125,55.3866996765136700,56,103,101,78,84,15496,0,0,0,0,2147126080,2147775533,2147576329,2147575442,3417,2,13,46562
1338775537,5807,1008.6300048828125000,41.9218788146972660,577.7968139648438000,3.9330120086669920,55.4136085510253900,55,99,101,79,84,15495,0,0,0,0,2147122898,2147774646,2147572068,2147577088,163,2,13,58541
1338779137,5808,1008.9600219726562000,41.8778610229492200,577.4478149414062000,3.9438800811767580,55.4166603088378900,55,99,100,79,82,15492,0,0,0,0,2147122697,2147769033,2147569353,2147574345,624,2,13,8351
1338782737,5810,1008.0499877929688000,41.5452117919921900,577.7495727539062000,3.9344809055328370,55.4699897766113300,55,98,101,78,84,15491,0,0,0,0,2147126729,2147775817,2147570998,2147569929,130,2,13,3918
1338786337,5809,1005.4899902343750000,41.3683280944824200,577.6226806640625000,3.9384350776672363,55.4921989440918000,54,99,101,79,84,15493,0,0,0,0,2147124397,2147773997,2147571437,2147572973,573,2,13,65185
1338789937,5809,1007.4299926757812000,42.2278594970703100,578.0440063476562000,3.9253139495849610,55.3767395019531250,55,99,101,78,83,15490,0,0,0,0,2147124352,2147776621,2147574537,2147571584,3062,2,13,43289
1338793537,5806,1010.0700073242188000,41.8405189514160160,577.4948730468750000,3.9424130916595460,55.4262008666992200,54,99,101,78,83,15494,0,0,0,0,2147125193,2147776493,2147577426,2147573046,550,2,13,37662
1338797137,5809,1012.5700073242188000,41.0816688537597660,576.5944213867188000,3.9704511165618896,55.5300788879394500,56,99,100,130,84,15492,0,0,0,0,2147124470,2147773376,2147576548,2147570825,3441,2,13,4334
1338800737,5809,1006.0399780273438000,40.4005699157714840,577.3159179687500000,3.9479870796203613,55.6358604431152340,54,98,102,78,84,15452,0,0,0,0,2147124882,2147776155,2147574811,2147573659,159,2,13,58726
1338804337,5811,1004.8300170898438000,41.8731498718261700,578.6597290039062000,3.9061369895935060,55.4316711425781250,55,98,101,77,85,15495,0,0,0,0,2147126153,2147778230,2147577197,2147568530,3530,2,13,41760
1338807937,5808,1014.0000000000000000,41.3015785217285160,576.7125244140625000,3.9667758941650390,55.4978904724121100,55,96,100,78,84,15491,0,0,0,0,2147124352,2147773376,2147572882,2147572342,125,2,13,6646
1338811537,5811,1022.4699707031250000,41.5141601562500000,577.0172119140625000,3.9572889804840090,55.4660186767578100,55,98,102,79,84,15491,0,0,0,0,2147122121,2147772452,2147569920,2147573650,619,2,13,3449
1338815137,5809,1016.3900146484375000,40.1218185424804700,576.5625000000000000,3.9714450836181640,55.6663398742675800,55,98,101,78,84,15492,0,0,0,0,2147129801,2147774016,2147575908,2147573110,398,2,13,46481
1338818737,5810,1013.8200073242188000,41.1665992736816400,577.1417236328125000,3.9534089565277100,55.5227508544921900,55,97,100,79,84,15493,0,0,0,0,2147126454,2147772324,2147575424,2147573897,2776,2,13,27762
1338822337,5808,1007.5100097656250000,40.5521392822265600,576.9539794921875000,3.9592549800872803,55.6056098937988300,55,99,101,79,83,15491,0,0,0,0,2147122569,2147774802,2147573101,2147570532,687,2,13,17859
1338825937,5809,1008.1699829101562000,40.7464599609375000,577.4376220703125000,3.9441990852355957,55.5858612060546900,56,98,101,78,85,15490,0,0,0,0,2147122752,2147778788,2147576100,2147572251,851,2,13,45524
1338829537,5812,1006.2000122070312000,42.0319290161132800,578.8222045898438000,3.9010729789733887,55.4104194641113300,56,102,101,78,84,15477,0,0,0,0,2147121673,2147776219,2147572571,2147575286,65,2,13,50171
1338833137,5810,1019.1599731445312000,42.7352104187011700,578.4102172851562000,3.9139060974121094,55.3024597167968750,56,99,102,78,85,15474,0,0,0,0,2147122724,2147775606,2147570706,2147570477,264,2,13,32966
1338836737,5809,1017.7700195312500000,41.9920883178710940,577.8812866210938000,3.9303779602050780,55.4057388305664060,56,98,101,78,83,15474,0,0,0,0,2147124342,2147772406,2147573842,2147572178,268,2,13,10724
1338837956,5807,1016.6400146484375000,41.7864608764648440,577.1940917968750000,3.9517800807952880,55.4264297485351560,55,97,103,78,84,15474,0,0,0,0,2147124818,2147775195,2147575762,2147571017,2685,2,13,61593
